KI4SSU Weather Reports


Display with metric or nautical units.
time (UTC)temp
F
wind
direction
speed
MPH
gust
MPH
rain 1hr
in
rain 24hr
in
rain mn
in
humidity
%
barometer
mb
20260905130411 78 132 0.0 0.0 0.00 0.00 0.00
20260905125411 78 132 0.0 0.0 0.00 0.00 0.00
20260905121411 78 132 0.0 0.0 0.00 0.00 0.00
20260905115411 78 111 0.0 0.0 0.00 0.00 0.00
20260905114414 78 111 0.0 0.0 0.00 0.00 0.00
20260905114410 78 111 0.0 0.0 0.00 0.00 0.00
20260905113411 78 111 0.0 0.0 0.00 0.00 0.00
20260905112412 77 111 0.0 0.0 0.00 0.00 0.00
20260905111411 77 111 0.0 0.0 0.00 0.00 0.00
20260905110412 77 111 0.0 0.0 0.00 0.00 0.00
20260905105411 77 111 0.0 0.0 0.00 0.00 0.00
20260905104411 77 111 0.0 0.0 0.00 0.00 0.00
20260905103448 78 111 0.0 0.0 0.00 0.00 0.00
20260905103411 78 111 0.0 0.0 0.00 0.00 0.00
20260905095411 80 111 0.0 0.0 0.00 0.00 0.00
20260905094412 80 206 1.0 1.0 0.00 0.00 0.00
20260905093412 80 31 0.0 0.0 0.00 0.00 0.00
20260905082412 82 179 0.0 0.0 0.00 0.00 0.00
20260905081412 82 207 1.0 1.0 0.00 0.00 0.00
20260905080932 82 224 2.0 3.0 0.00 0.00 0.00
20260905080411 82 224 2.0 3.0 0.00 0.00 0.00
20260905073912 82 269 1.0 3.0 0.00 0.00 0.00
20260905073411 82 245 1.0 2.0 0.00 0.00 0.00
20260905070412 83 277 1.0 4.0 0.00 0.00 0.00
20260905065412 83 221 0.0 3.0 0.00 0.00 0.00
20260905064411 84 246 3.0 3.0 0.00 0.00 0.00
20260905063412 84 183 0.0 0.0 0.00 0.00 0.00
20260905062412 84 194 2.0 1.0 0.00 0.00 0.00
20260905061411 85 220 0.0 0.0 0.00 0.00 0.00
20260905060447 85 228 2.0 5.0 0.00 0.00 0.00
20260905060412 85 228 2.0 5.0 0.00 0.00 0.00
20260905054412 85 245 5.0 8.0 0.00 0.00 0.00
20260905053421 86 241 2.0 2.0 0.00 0.00 0.00
20260905053412 86 241 2.0 2.0 0.00 0.00 0.00
20260905052412 86 225 3.0 7.0 0.00 0.00 0.00
20260905051412 86 228 1.0 3.0 0.00 0.00 0.00
20260905050413 86 218 3.0 5.0 0.00 0.00 0.00
20260905045412 86 260 3.0 2.0 0.00 0.00 0.00
20260905044412 87 138 0.0 1.0 0.00 0.00 0.00
20260905043414 88 241 3.0 3.0 0.00 0.00 0.00
20260905041413 88 238 1.0 3.0 0.00 0.00 0.00
20260905040412 89 170 0.0 2.0 0.00 0.00 0.00
20260905035413 89 244 2.0 1.0 0.00 0.00 0.00
20260905033412 89 170 2.0 3.0 0.00 0.00 0.00
20260905032413 90 163 2.0 5.0 0.00 0.00 0.00
20260905030913 90 58 1.0 1.0 0.00 0.00 0.00
20260905025412 91 168 3.0 5.0 0.00 0.00 0.00
20260905024914 91 163 2.0 4.0 0.00 0.00 0.00
20260905024412 91 169 0.0 0.0 0.00 0.00 0.00
20260905023412 91 158 0.0 3.0 0.00 0.00 0.00
20260905022914 91 193 1.0 2.0 0.00 0.00 0.00
20260905022412 91 151 1.0 4.0 0.00 0.00 0.00
20260905021413 92 229 2.0 2.0 0.00 0.00 0.00
20260905015413 92 193 3.0 2.0 0.00 0.00 0.00
20260905014915 92 55 3.0 3.0 0.00 0.00 0.00
20260905014413 94 131 1.0 0.0 0.00 0.00 0.00
20260905012413 94 142 3.0 3.0 0.00 0.00 0.00
20260905011413 94 63 3.0 3.0 0.00 0.00 0.00
20260905010412 94 75 3.0 4.0 0.00 0.00 0.00
20260905004413 95 32 3.0 6.0 0.00 0.00 0.00
20260905003414 95 211 2.0 6.0 0.00 0.00 0.00
20260905002413 96 99 4.0 5.0 0.00 0.00 0.00
20260905001413 96 83 3.0 3.0 0.00 0.00 0.00
20260905000413 96 199 2.0 6.0 0.00 0.00 0.00
20260904235413 97 182 3.0 3.0 0.00 0.00 0.00
20260904234414 98 182 3.0 5.0 0.00 0.00 0.00
20260904232414 99 51 3.0 8.0 0.00 0.00 0.00
20260904231915 100 41 1.0 5.0 0.00 0.00 0.00
20260904231414 99 166 2.0 3.0 0.00 0.00 0.00
20260904225414 100 146 2.0 4.0 0.00 0.00 0.00
20260904223919 99 183 3.0 7.0 0.00 0.00 0.00
20260904220415 100 146 2.0 4.0 0.00 0.00 0.00
20260904214916 102 151 4.0 6.0 0.00 0.00 0.00
20260904214414 103 92 3.0 8.0 0.00 0.00 0.00
20260904213414 101 217 2.0 5.0 0.00 0.00 0.00
20260904202414 101 146 3.0 5.0 0.00 0.00 0.00
20260904201916 101 196 5.0 7.0 0.00 0.00 0.00
20260904201414 101 225 5.0 7.0 0.00 0.00 0.00
20260904200414 101 252 4.0 9.0 0.00 0.00 0.00
20260904195414 99 107 4.0 9.0 0.00 0.00 0.00
20260904193414 100 269 5.0 8.0 0.00 0.00 0.00
20260904192414 101 159 6.0 8.0 0.00 0.00 0.00
20260904191414 103 234 4.0 6.0 0.00 0.00 0.00
20260904190915 101 225 6.0 9.0 0.00 0.00 0.00
20260904190414 103 258 6.0 8.0 0.00 0.00 0.00
20260904185915 101 220 3.0 9.0 0.00 0.00 0.00
20260904185414 101 191 3.0 3.0 0.00 0.00 0.00
20260904184414 101 77 3.0 5.0 0.00 0.00 0.00
20260904183917 102 70 6.0 9.0 0.00 0.00 0.00
20260904183414 101 58 4.0 7.0 0.00 0.00 0.00
20260904181416 99 220 5.0 5.0 0.00 0.00 0.00
20260904180414 99 152 3.0 9.0 0.00 0.00 0.00
20260904174914 99 194 3.0 8.0 0.00 0.00 0.00
20260904174414 99 106 2.0 2.0 0.00 0.00 0.00
20260904173414 99 122 1.0 4.0 0.00 0.00 0.00
20260904172914 99 231 6.0 7.0 0.00 0.00 0.00
20260904172414 99 149 4.0 7.0 0.00 0.00 0.00
20260904171915 99 128 4.0 3.0 0.00 0.00 0.00
20260904171414 99 151 3.0 5.0 0.00 0.00 0.00
20260904170915 96 100 4.0 5.0 0.00 0.00 0.00
20260904170414 97 246 7.0 8.0 0.00 0.00 0.00
20260904165414 96 101 3.0 6.0 0.00 0.00 0.00
20260904164415 93 227 5.0 10.0 0.00 0.00 0.00
20260904163914 94 210 4.0 7.0 0.00 0.00 0.00
20260904163414 94 235 6.0 10.0 0.00 0.00 0.00
20260904162915 94 241 6.0 11.0 0.00 0.00 0.00
20260904162414 92 231 6.0 6.0 0.00 0.00 0.00
20260904161915 92 238 1.0 7.0 0.00 0.00 0.00
20260904161414 92 222 4.0 4.0 0.00 0.00 0.00
20260904160914 92 211 4.0 8.0 0.00 0.00 0.00
20260904155915 91 241 5.0 4.0 0.00 0.00 0.00
20260904155415 91 222 2.0 8.0 0.00 0.00 0.00
20260904154915 90 232 4.0 7.0 0.00 0.00 0.00
20260904154415 90 237 6.0 6.0 0.00 0.00 0.00
20260904153414 89 217 4.0 7.0 0.00 0.00 0.00
20260904152914 89 234 4.0 9.0 0.00 0.00 0.00
20260904152414 89 237 3.0 6.0 0.00 0.00 0.00
20260904151914 90 291 4.0 8.0 0.00 0.00 0.00
20260904150414 88 263 6.0 7.0 0.00 0.00 0.00
20260904145414 87 214 5.0 9.0 0.00 0.00 0.00
20260904144415 84 224 4.0 4.0 0.00 0.00 0.00
20260904143415 83 66 3.0 2.0 0.00 0.00 0.00
20260904142915 82 187 2.0 4.0 0.00 0.00 0.00
20260904141415 82 191 2.0 1.0 0.00 0.00 0.00
20260904140417 82 176 2.0 1.0 0.00 0.00 0.00
20260904135415 81 58 1.0 4.0 0.00 0.00 0.00
20260904133916 81 220 2.0 7.0 0.00 0.00 0.00
20260904132415 81 121 1.0 1.0 0.00 0.00 0.00
20260904131705 80 184 2.0 2.0 0.00 0.00 0.00
20260904131416 80 184 2.0 2.0 0.00 0.00 0.00